Location: Riverside Cemetery
(38.3047°N, 99.7773°W)
Time: 11:11:55
(UTC+00:00)

Cosmos 1842 - Pass Details

Date: 19 September 2020
Orbit: 521 x 536 km, 82.5° (Epoch: 25 October)

Event Time Altitude Azimuth Distance (km) Brightness Sun altitude
Rises 01:24:42 0° 354° (N) 2,657 7.0 -9.3°
Reaches altitude 10° 01:26:51 10° 357° (N) 1,765 6.1 -9.7°
Maximum altitude 01:30:43 73° 82° (E) 550 3.1 -10.4°
Drops below altitude 10° 01:34:34 10° 168° (SSE) 1,755 5.7 -11.2°
Sets 01:36:42 0° 170° (S) 2,640 6.6 -11.6°
